Overview Statistics Trail Chart Weather Telemetry Raw packets
 

This is the latest recevied weather packets stored in our database for station/object KB1RMA-4. If no packets are shown the sender has not sent any weather packets the latest 10 day(s).

<< 24 25 26 27 28 29 30 >>
Time Temp. Humidity Pressure Rain* Wind** Luminosity Snow
1788467748 22.22° C 82% 1012.3 hPa 0 mm - 298 W/m² -
1788467448 21.67° C 83% 1012.3 hPa 0 mm - 343 W/m² -
1788467143 21.67° C 83% 1012.4 hPa 0 mm - 190 W/m² -
1788466838 21.67° C 84% 1012.3 hPa 0 mm - 222 W/m² -
1788466533 21.67° C 84% 1012.6 hPa 0 mm - 110 W/m² -
1788466232 21.67° C 83% 1012.5 hPa 0 mm - 89 W/m² -
1788465927 21.67° C 83% 1012.3 hPa 0 mm - 98 W/m² -
1788465623 22.22° C 83% 1012.8 hPa 0 mm - 130 W/m² -
1788465318 22.22° C 83% 1012.7 hPa 0 mm - 173 W/m² -
1788465014 22.22° C 82% 1012.7 hPa 0 mm - 202 W/m² -
1788464709 22.78° C 82% 1012.7 hPa 0 mm - 219 W/m² -
1788464404 21.67° C 83% 1012.7 hPa 0 mm - 618 W/m² -
1788464101 21.67° C 84% 1012.7 hPa 0 mm - 376 W/m² -
1788463795 21.67° C 85% 1012.7 hPa 0 mm - 241 W/m² -
1788463493 21.11° C 85% 1012.7 hPa 0 mm - 207 W/m² -
1788463187 21.11° C 85% 1012.8 hPa 0 mm - 171 W/m² -
1788462883 21.67° C 85% 1013 hPa 0 mm - 144 W/m² -
1788462582 21.67° C 85% 1013 hPa 0 mm - 160 W/m² -
1788462277 21.67° C 85% 1013.1 hPa 0 mm - 155 W/m² -
1788461976 21.67° C 85% 1013.1 hPa 0 mm - 95 W/m² -
1788461672 21.67° C 85% 1013.1 hPa 0 mm - 133 W/m² -
1788461367 21.67° C 85% 1012.9 hPa 0 mm - 138 W/m² -
1788461064 21.67° C 85% 1013.1 hPa 0 mm - 171 W/m² -
1788460764 21.67° C 84% 1012.9 hPa 0 mm - 153 W/m² -
1788460459 21.67° C 84% 1013.3 hPa 0 mm - 121 W/m² -

* Rain latest hour (hover to see other rain measurements)
** Current wind speed in m/s (hover to see current wind gust speed)